Location: Newark
(13.6797°N, 8.5297°E)
Time: 17:44:11
(UTC+00:00)

Courier 1B Rocket - Pass Details

Date: 26 January 2020
Orbit: 920 x 1202 km, 28.2° (Epoch: 22 February)

Event Time Altitude Azimuth Distance (km) Brightness Sun altitude
Rises 05:57:50 0° 212° (SSW) 4,080 8.1 0.1°
Reaches altitude 10° 06:01:21 10° 199° (SSW) 3,126 7.7 0.9°
Maximum altitude 06:07:18 24° 149° (SSE) 2,265 7.8 2.3°
Drops below altitude 10° 06:13:09 10° 99° (E) 3,081 9.8 3.6°
Sets 06:16:34 0° 86° (E) 4,010 9.6 4.4°
